Time,TemperatureF,DewpointF,PressureIn,WindDirection,WindDirectionDegrees,WindSpeedMPH,WindSpeedGustMPH,Humidity,HourlyPrecipIn,Conditions,Clouds,dailyrainin,SoftwareType,DateUTC
2013-01-30 00:00:00,44.0,43.0,30.29,East,80,1.0,-999.0,99,-99.99,,,-99.99,,2013-01-30 08:00:00,
2013-01-30 00:21:00,44.0,43.0,30.29,East,80,1.0,-999.0,99,-99.99,,,-99.99,,2013-01-30 08:21:00,
2013-01-30 00:31:00,44.0,43.0,30.29,East,80,1.0,-999.0,99,-99.99,,,-99.99,,2013-01-30 08:31:00,
2013-01-30 00:41:00,44.0,43.0,30.29,East,80,1.0,-999.0,99,-99.99,,,-99.99,,2013-01-30 08:41:00,
2013-01-30 00:51:00,44.0,43.0,30.29,East,80,1.0,-999.0,99,-99.99,,,-99.99,,2013-01-30 08:51:00,
2013-01-30 01:00:00,45.0,44.0,30.31,WSW,240,2.0,-999.0,99,-99.99,,,-99.99,,2013-01-30 09:00:00,
2013-01-30 01:21:00,45.0,44.0,30.31,WSW,240,2.0,-999.0,99,-99.99,,,-99.99,,2013-01-30 09:21:00,
2013-01-30 01:31:00,45.0,44.0,30.31,WSW,240,2.0,-999.0,99,-99.99,,,-99.99,,2013-01-30 09:31:00,
2013-01-30 01:41:00,45.0,44.0,30.31,WSW,240,2.0,-999.0,99,-99.99,,,-99.99,,2013-01-30 09:41:00,
2013-01-30 01:51:00,45.0,44.0,30.31,WSW,240,2.0,-999.0,99,-99.99,,,-99.99,,2013-01-30 09:51:00,
2013-01-30 02:00:00,43.0,43.0,30.31,NW,310,3.0,-999.0,99,-99.99,,,-99.99,,2013-01-30 10:00:00,
2013-01-30 02:21:00,43.0,43.0,30.31,NW,310,3.0,-999.0,99,-99.99,,,-99.99,,2013-01-30 10:21:00,
2013-01-30 02:31:00,43.0,43.0,30.31,NW,310,3.0,-999.0,99,-99.99,,,-99.99,,2013-01-30 10:31:00,
2013-01-30 02:41:00,43.0,43.0,30.31,NW,310,3.0,-999.0,99,-99.99,,,-99.99,,2013-01-30 10:41:00,
2013-01-30 02:51:00,43.0,43.0,30.31,NW,310,3.0,-999.0,99,-99.99,,,-99.99,,2013-01-30 10:51:00,
2013-01-30 03:00:00,42.0,42.0,30.32,WNW,300,2.0,-999.0,99,-99.99,,,-99.99,,2013-01-30 11:00:00,
2013-01-30 03:21:00,42.0,42.0,30.32,WNW,300,2.0,-999.0,99,-99.99,,,-99.99,,2013-01-30 11:21:00,
2013-01-30 03:32:00,42.0,42.0,30.32,WNW,300,2.0,-999.0,99,-99.99,,,-99.99,,2013-01-30 11:32:00,
2013-01-30 03:41:00,42.0,42.0,30.32,WNW,300,2.0,-999.0,99,-99.99,,,-99.99,,2013-01-30 11:41:00,
2013-01-30 03:51:00,42.0,42.0,30.32,WNW,300,2.0,-999.0,99,-99.99,,,-99.99,,2013-01-30 11:51:00,
2013-01-30 04:00:00,42.0,42.0,30.32,NW,310,2.0,-999.0,99,-99.99,,,-99.99,,2013-01-30 12:00:00,
2013-01-30 04:21:00,42.0,42.0,30.32,NW,310,2.0,-999.0,99,-99.99,,,-99.99,,2013-01-30 12:21:00,
2013-01-30 04:32:00,42.0,42.0,30.32,NW,310,2.0,-999.0,99,-99.99,,,-99.99,,2013-01-30 12:32:00,
2013-01-30 04:42:00,42.0,42.0,30.32,NW,310,2.0,-999.0,99,-99.99,,,-99.99,,2013-01-30 12:42:00,
2013-01-30 05:00:00,42.0,42.0,30.32,WNW,300,3.0,-999.0,99,-99.99,,,-99.99,,2013-01-30 13:00:00,
2013-01-30 05:22:00,42.0,42.0,30.32,WNW,300,3.0,-999.0,99,-99.99,,,-99.99,,2013-01-30 13:22:00,
2013-01-30 05:31:00,42.0,42.0,30.32,WNW,300,3.0,-999.0,99,-99.99,,,-99.99,,2013-01-30 13:31:00,
2013-01-30 05:41:00,42.0,42.0,30.32,WNW,300,3.0,-999.0,99,-99.99,,,-99.99,,2013-01-30 13:41:00,
2013-01-30 05:52:00,42.0,42.0,30.32,WNW,300,3.0,-999.0,99,-99.99,,,-99.99,,2013-01-30 13:52:00,
2013-01-30 06:00:00,42.0,42.0,30.32,West,270,5.0,-999.0,98,-99.99,,,-99.99,,2013-01-30 14:00:00,
2013-01-30 06:21:00,42.0,42.0,30.32,West,270,5.0,-999.0,98,-99.99,,,-99.99,,2013-01-30 14:21:00,
2013-01-30 06:31:00,42.0,42.0,30.32,West,270,5.0,-999.0,98,-99.99,,,-99.99,,2013-01-30 14:31:00,
2013-01-30 06:41:00,42.0,42.0,30.32,West,270,5.0,-999.0,98,-99.99,,,-99.99,,2013-01-30 14:41:00,
2013-01-30 06:52:00,42.0,42.0,30.32,West,270,5.0,-999.0,98,-99.99,,,-99.99,,2013-01-30 14:52:00,
2013-01-30 07:00:00,42.0,42.0,30.33,WNW,300,6.0,-999.0,99,-99.99,,,-99.99,,2013-01-30 15:00:00,
2013-01-30 07:22:00,42.0,42.0,30.33,WNW,300,6.0,-999.0,99,-99.99,,,-99.99,,2013-01-30 15:22:00,
2013-01-30 07:31:00,42.0,42.0,30.33,WNW,300,6.0,-999.0,99,-99.99,,,-99.99,,2013-01-30 15:31:00,
2013-01-30 07:42:00,42.0,42.0,30.33,WNW,300,6.0,-999.0,99,-99.99,,,-99.99,,2013-01-30 15:42:00,
2013-01-30 07:52:00,42.0,42.0,30.33,WNW,300,6.0,-999.0,99,-99.99,,,-99.99,,2013-01-30 15:52:00,
2013-01-30 08:00:00,43.0,43.0,30.34,West,270,3.0,-999.0,100,-99.99,,,-99.99,,2013-01-30 16:00:00,
2013-01-30 08:21:00,43.0,43.0,30.34,West,270,3.0,-999.0,100,-99.99,,,-99.99,,2013-01-30 16:21:00,
2013-01-30 08:31:00,43.0,43.0,30.34,West,270,3.0,-999.0,100,-99.99,,,-99.99,,2013-01-30 16:31:00,
2013-01-30 08:41:00,43.0,43.0,30.34,West,270,3.0,-999.0,100,-99.99,,,-99.99,,2013-01-30 16:41:00,
2013-01-30 08:51:00,43.0,43.0,30.34,West,270,3.0,-999.0,100,-99.99,,,-99.99,,2013-01-30 16:51:00,
2013-01-30 09:00:00,44.0,44.0,30.35,SW,230,3.0,-999.0,99,-99.99,,,-99.99,,2013-01-30 17:00:00,
2013-01-30 09:21:00,44.0,44.0,30.35,SW,230,3.0,-999.0,99,-99.99,,,-99.99,,2013-01-30 17:21:00,
2013-01-30 09:31:00,44.0,44.0,30.35,SW,230,3.0,-999.0,99,-99.99,,,-99.99,,2013-01-30 17:31:00,
2013-01-30 09:41:00,44.0,44.0,30.35,SW,230,3.0,-999.0,99,-99.99,,,-99.99,,2013-01-30 17:41:00,
2013-01-30 09:52:00,44.0,44.0,30.35,SW,230,3.0,-999.0,99,-99.99,,,-99.99,,2013-01-30 17:52:00,
2013-01-30 10:00:00,44.0,44.0,30.36,WSW,240,6.0,-999.0,100,-99.99,,,-99.99,,2013-01-30 18:00:00,
2013-01-30 10:21:00,44.0,44.0,30.36,WSW,240,6.0,-999.0,100,-99.99,,,-99.99,,2013-01-30 18:21:00,
2013-01-30 10:32:00,44.0,44.0,30.36,WSW,240,6.0,-999.0,100,-99.99,,,-99.99,,2013-01-30 18:32:00,
2013-01-30 10:42:00,44.0,44.0,30.36,WSW,240,6.0,-999.0,100,-99.99,,,-99.99,,2013-01-30 18:42:00,
2013-01-30 10:51:00,44.0,44.0,30.36,WSW,240,6.0,-999.0,100,-99.99,,,-99.99,,2013-01-30 18:51:00,
2013-01-30 11:00:00,44.0,44.0,30.38,WSW,250,5.0,-999.0,99,-99.99,,,-99.99,,2013-01-30 19:00:00,
2013-01-30 11:21:00,44.0,44.0,30.38,WSW,250,5.0,-999.0,99,-99.99,,,-99.99,,2013-01-30 19:21:00,
2013-01-30 11:31:00,44.0,44.0,30.38,WSW,250,5.0,-999.0,99,-99.99,,,-99.99,,2013-01-30 19:31:00,
2013-01-30 11:42:00,44.0,44.0,30.38,WSW,250,5.0,-999.0,99,-99.99,,,-99.99,,2013-01-30 19:42:00,
2013-01-30 11:52:00,44.0,44.0,30.38,WSW,250,5.0,-999.0,99,-99.99,,,-99.99,,2013-01-30 19:52:00,
2013-01-30 12:00:00,44.0,44.0,30.38,SW,230,3.0,-999.0,99,-99.99,,,-99.99,,2013-01-30 20:00:00,
2013-01-30 12:21:00,44.0,44.0,30.38,SW,230,3.0,-999.0,99,-99.99,,,-99.99,,2013-01-30 20:21:00,
2013-01-30 12:32:00,44.0,44.0,30.38,SW,230,3.0,-999.0,99,-99.99,,,-99.99,,2013-01-30 20:32:00,
2013-01-30 12:41:00,44.0,44.0,30.38,SW,230,3.0,-999.0,99,-99.99,,,-99.99,,2013-01-30 20:41:00,
2013-01-30 12:52:00,44.0,44.0,30.38,SW,230,3.0,-999.0,99,-99.99,,,-99.99,,2013-01-30 20:52:00,
2013-01-30 13:00:00,45.0,45.0,30.37,West,260,2.0,-999.0,99,-99.99,,,-99.99,,2013-01-30 21:00:00,
2013-01-30 13:21:00,45.0,45.0,30.37,West,260,2.0,-999.0,99,-99.99,,,-99.99,,2013-01-30 21:21:00,
2013-01-30 13:31:00,45.0,45.0,30.37,West,260,2.0,-999.0,99,-99.99,,,-99.99,,2013-01-30 21:31:00,
2013-01-30 13:41:00,45.0,45.0,30.37,West,260,2.0,-999.0,99,-99.99,,,-99.99,,2013-01-30 21:41:00,
2013-01-30 13:52:00,45.0,45.0,30.37,West,260,2.0,-999.0,99,-99.99,,,-99.99,,2013-01-30 21:52:00,
2013-01-30 14:00:00,45.0,45.0,30.37,West,260,3.0,-999.0,99,-99.99,,,-99.99,,2013-01-30 22:00:00,
2013-01-30 14:21:00,45.0,45.0,30.37,West,260,3.0,-999.0,99,-99.99,,,-99.99,,2013-01-30 22:21:00,
2013-01-30 14:31:00,45.0,45.0,30.37,West,260,3.0,-999.0,99,-99.99,,,-99.99,,2013-01-30 22:31:00,
2013-01-30 14:41:00,45.0,45.0,30.37,West,260,3.0,-999.0,99,-99.99,,,-99.99,,2013-01-30 22:41:00,
2013-01-30 14:52:00,45.0,45.0,30.37,West,260,3.0,-999.0,99,-99.99,,,-99.99,,2013-01-30 22:52:00,
2013-01-30 15:00:00,44.0,44.0,30.37,ENE,70,3.0,-999.0,98,-99.99,,,-99.99,,2013-01-30 23:00:00,
2013-01-30 15:21:00,44.0,44.0,30.37,ENE,70,3.0,-999.0,98,-99.99,,,-99.99,,2013-01-30 23:21:00,
2013-01-30 15:32:00,44.0,44.0,30.37,ENE,70,3.0,-999.0,98,-99.99,,,-99.99,,2013-01-30 23:32:00,
2013-01-30 15:42:00,44.0,44.0,30.37,ENE,70,3.0,-999.0,98,-99.99,,,-99.99,,2013-01-30 23:42:00,
2013-01-30 15:52:00,44.0,44.0,30.37,ENE,70,3.0,-999.0,98,-99.99,,,-99.99,,2013-01-30 23:52:00,
2013-01-30 16:00:00,45.0,44.0,30.37,ENE,70,1.0,-999.0,99,-99.99,,,-99.99,,2013-01-31 00:00:00,
2013-01-30 16:21:00,45.0,44.0,30.37,ENE,70,1.0,-999.0,99,-99.99,,,-99.99,,2013-01-31 00:21:00,
2013-01-30 16:31:00,45.0,44.0,30.37,ENE,70,1.0,-999.0,99,-99.99,,,-99.99,,2013-01-31 00:31:00,
2013-01-30 16:41:00,45.0,44.0,30.37,ENE,70,1.0,-999.0,99,-99.99,,,-99.99,,2013-01-31 00:41:00,
2013-01-30 16:52:00,45.0,44.0,30.37,ENE,70,1.0,-999.0,99,-99.99,,,-99.99,,2013-01-31 00:52:00,
2013-01-30 17:00:00,44.0,44.0,30.37,NE,40,2.0,-999.0,99,-99.99,,,-99.99,,2013-01-31 01:00:00,
2013-01-30 17:21:00,44.0,44.0,30.37,NE,40,2.0,-999.0,99,-99.99,,,-99.99,,2013-01-31 01:21:00,
2013-01-30 17:31:00,44.0,44.0,30.37,NE,40,2.0,-999.0,99,-99.99,,,-99.99,,2013-01-31 01:31:00,
2013-01-30 17:41:00,44.0,44.0,30.37,NE,40,2.0,-999.0,99,-99.99,,,-99.99,,2013-01-31 01:41:00,
2013-01-30 17:52:00,44.0,44.0,30.37,NE,40,2.0,-999.0,99,-99.99,,,-99.99,,2013-01-31 01:52:00,
2013-01-30 18:00:00,44.0,44.0,30.37,NE,40,2.0,-999.0,99,-99.99,,,-99.99,,2013-01-31 02:00:00,
2013-01-30 18:21:00,44.0,44.0,30.37,NE,40,2.0,-999.0,99,-99.99,,,-99.99,,2013-01-31 02:21:00,
2013-01-30 18:31:00,44.0,44.0,30.37,NE,40,2.0,-999.0,99,-99.99,,,-99.99,,2013-01-31 02:31:00,
2013-01-30 18:41:00,44.0,44.0,30.37,NE,40,2.0,-999.0,99,-99.99,,,-99.99,,2013-01-31 02:41:00,
2013-01-30 18:51:00,44.0,44.0,30.37,NE,40,2.0,-999.0,99,-99.99,,,-99.99,,2013-01-31 02:51:00,
2013-01-30 19:00:00,44.0,43.0,30.37,North,350,1.0,-999.0,99,-99.99,,,-99.99,,2013-01-31 03:00:00,
2013-01-30 19:21:00,44.0,43.0,30.37,North,350,1.0,-999.0,99,-99.99,,,-99.99,,2013-01-31 03:21:00,
2013-01-30 19:31:00,44.0,43.0,30.37,North,350,1.0,-999.0,99,-99.99,,,-99.99,,2013-01-31 03:31:00,
2013-01-30 19:41:00,44.0,43.0,30.37,North,350,1.0,-999.0,99,-99.99,,,-99.99,,2013-01-31 03:41:00,
2013-01-30 19:51:00,44.0,43.0,30.37,North,350,1.0,-999.0,99,-99.99,,,-99.99,,2013-01-31 03:51:00,
2013-01-30 20:21:00,43.0,43.0,30.37,NNE,20,2.0,-999.0,100,-99.99,,,-99.99,,2013-01-31 04:21:00,
2013-01-30 20:31:00,43.0,43.0,30.37,NNE,20,2.0,-999.0,100,-99.99,,,-99.99,,2013-01-31 04:31:00,
2013-01-30 20:41:00,43.0,43.0,30.37,NNE,20,2.0,-999.0,100,-99.99,,,-99.99,,2013-01-31 04:41:00,
2013-01-30 20:51:00,43.0,43.0,30.37,NNE,20,2.0,-999.0,100,-99.99,,,-99.99,,2013-01-31 04:51:00,
2013-01-30 21:00:00,43.0,43.0,30.37,NE,40,3.0,-999.0,100,-99.99,,,-99.99,,2013-01-31 05:00:00,
2013-01-30 21:21:00,43.0,43.0,30.37,NE,40,3.0,-999.0,100,-99.99,,,-99.99,,2013-01-31 05:21:00,
2013-01-30 21:31:00,43.0,43.0,30.37,NE,40,3.0,-999.0,100,-99.99,,,-99.99,,2013-01-31 05:31:00,
2013-01-30 21:41:00,43.0,43.0,30.37,NE,40,3.0,-999.0,100,-99.99,,,-99.99,,2013-01-31 05:41:00,
2013-01-30 21:51:00,43.0,43.0,30.37,NE,40,3.0,-999.0,100,-99.99,,,-99.99,,2013-01-31 05:51:00,